パンスターズ彗星

C/2023 Q1 ( PanSTARRS )

English version
Home page
Updated on May 13, 2024

---------------------------------------------------------------------

・ プロフィール

発見日 2023年8月20日
発見光度 22.0等
発見者 Pan-STARRS 1 telescope (Haleakala)

・ 写真集

・ 軌道要素

Epoch 2024 Mar. 31.0 TT = JDT 2460400.5
T 2024 Dec. 1.22345 TT                                  Rudenko
q   2.5755906            (2000.0)            P               Q
z  -0.0019411      Peri.   84.41028     -0.00280945     -0.99722659
 +/-0.0000013      Node     7.15584     +0.50158264     -0.06574564
e   1.0049994      Incl.   36.65815     +0.86510517     +0.03488040
>From 102 observations 2023 July 25-2024 Jan. 31, mean residual 0".3.

・ 星図

・ 光度変化

        m1 = 9.5 + 5 logΔ + 10.0 log r

---------------------------------------------------------------------

軌道要素はM.P.E.C. 2024-D33に掲載されたものです。
星図はステラナビゲータ Ver.11 (アストロアーツ) で作成したものです。
光度グラフはComet for Windowsで作成したものです。

---------------------------------------------------------------------

Copyright(C) Seiichi Yoshida (comet@aerith.net). All rights reserved.